| time (UTC) | temp F | wind direction | speed MPH | gust MPH | rain 1hr in | rain 24hr in | rain mn in | humidity % | barometer mb |
| 20260506204700 | 46 | 88 | 0.0 | 3.0 | 0.00 | 0.00 | 0.00 | 100 | 1011.3 |
| 20260506204201 | 46 | 88 | 0.0 | 0.0 | 0.00 | 0.00 | 0.00 | 100 | 1011.4 |
| 20260506203655 | 46 | 88 | 0.0 | 0.0 | 0.00 | 0.00 | 0.00 | 100 | 1011.3 |
| 20260506203156 | 46 | 88 | 0.0 | 0.0 | 0.00 | 0.00 | 0.00 | 100 | 1011.4 |
| 20260506202653 | 46 | 87 | 0.0 | 0.0 | 0.00 | 0.00 | 0.00 | 100 | 1011.3 |
| 20260506202153 | 46 | 87 | 0.0 | 0.0 | 0.00 | 0.00 | 0.00 | 100 | 1011.5 |
| 20260506201654 | 47 | 88 | 0.0 | 1.0 | 0.00 | 0.00 | 0.00 | 100 | 1011.6 |
| 20260506201153 | 47 | 87 | 0.0 | 1.0 | 0.00 | 0.00 | 0.00 | 100 | 1011.6 |
| 20260506200650 | 47 | 88 | 0.0 | 1.0 | 0.00 | 0.00 | 0.00 | 100 | 1011.6 |
| 20260506200149 | 47 | 88 | 0.0 | 2.0 | 0.00 | 0.00 | 0.00 | 100 | 1011.7 |
| 20260506195649 | 47 | 87 | 0.0 | 2.0 | 0.00 | 0.00 | 0.00 | 100 | 1011.7 |
| 20260506195146 | 47 | 88 | 0.0 | 2.0 | 0.00 | 0.00 | 0.00 | 100 | 1011.7 |
| 20260506194644 | 47 | 88 | 1.0 | 2.0 | 0.00 | 0.00 | 0.00 | 100 | 1011.7 |
| 20260506194147 | 47 | 87 | 1.0 | 3.0 | 0.00 | 0.00 | 0.00 | 100 | 1011.7 |
| 20260506193645 | 48 | 87 | 1.0 | 3.0 | 0.00 | 0.00 | 0.00 | 100 | 1011.8 |
| 20260506193143 | 48 | 88 | 1.0 | 3.0 | 0.00 | 0.00 | 0.00 | 100 | 1011.8 |
| 20260506192643 | 48 | 87 | 0.0 | 3.0 | 0.00 | 0.00 | 0.00 | 100 | 1011.9 |
| 20260506192145 | 49 | 96 | 0.0 | 2.0 | 0.00 | 0.00 | 0.00 | 100 | 1011.9 |
| 20260506191646 | 49 | 96 | 1.0 | 3.0 | 0.00 | 0.00 | 0.00 | 100 | 1012.0 |
| 20260506191142 | 49 | 96 | 1.0 | 3.0 | 0.00 | 0.00 | 0.00 | 100 | 1011.9 |
| 20260506190642 | 49 | 96 | 1.0 | 3.0 | 0.00 | 0.00 | 0.00 | 100 | 1011.8 |
| 20260506190142 | 49 | 97 | 2.0 | 6.0 | 0.00 | 0.00 | 0.00 | 100 | 1011.8 |
| 20260506185641 | 49 | 96 | 2.0 | 6.0 | 0.00 | 0.00 | 0.00 | 100 | 1011.8 |
| 20260506185136 | 49 | 93 | 2.0 | 7.0 | 0.00 | 0.00 | 0.00 | 100 | 1011.8 |
| 20260506184905 | 49 | 92 | 3.0 | 7.0 | 0.00 | 0.00 | 0.00 | 100 | 1011.8 |
| 20260506184135 | 49 | 90 | 3.0 | 7.0 | 0.00 | 0.00 | 0.00 | 100 | 1011.8 |
| 20260506183905 | 49 | 87 | 3.0 | 8.0 | 0.00 | 0.00 | 0.00 | 100 | 1011.8 |
| 20260506183131 | 49 | 119 | 3.0 | 8.0 | 0.00 | 0.00 | 0.00 | 100 | 1011.8 |
| 20260506182859 | 49 | 87 | 3.0 | 8.0 | 0.00 | 0.00 | 0.00 | 100 | 1011.8 |
| 20260506182130 | 50 | 113 | 4.0 | 8.0 | 0.00 | 0.00 | 0.00 | 100 | 1011.9 |
| 20260506181626 | 50 | 114 | 4.0 | 8.0 | 0.00 | 0.00 | 0.00 | 100 | 1011.9 |
| 20260506181121 | 50 | 101 | 3.0 | 8.0 | 0.00 | 0.00 | 0.00 | 100 | 1012.0 |
| 20260506180854 | 49 | 95 | 4.0 | 7.0 | 0.00 | 0.00 | 0.00 | 100 | 1012.0 |
| 20260506180118 | 49 | 93 | 4.0 | 9.0 | 0.00 | 0.00 | 0.00 | 100 | 1012.0 |
| 20260506175616 | 49 | 86 | 4.0 | 9.0 | 0.00 | 0.00 | 0.00 | 100 | 1012.0 |
| 20260506175117 | 49 | 94 | 4.0 | 9.0 | 0.00 | 0.00 | 0.00 | 100 | 1012.0 |
| 20260506174616 | 49 | 94 | 4.0 | 9.0 | 0.00 | 0.00 | 0.00 | 100 | 1012.0 |
| 20260506174118 | 49 | 122 | 4.0 | 9.0 | 0.00 | 0.00 | 0.00 | 100 | 1012.1 |
| 20260506173857 | 50 | 90 | 4.0 | 8.0 | 0.00 | 0.00 | 0.00 | 100 | 1012.0 |
| 20260506173116 | 50 | 99 | 4.0 | 10.0 | 0.00 | 0.00 | 0.00 | 100 | 1012.0 |
| 20260506172618 | 50 | 130 | 4.0 | 10.0 | 0.00 | 0.00 | 0.00 | 100 | 1012.1 |
| 20260506172118 | 50 | 92 | 4.0 | 9.0 | 0.00 | 0.00 | 0.00 | 100 | 1012.0 |
| 20260506171616 | 51 | 76 | 4.0 | 9.0 | 0.00 | 0.00 | 0.00 | 100 | 1012.1 |
| 20260506171116 | 51 | 90 | 4.0 | 9.0 | 0.00 | 0.00 | 0.00 | 100 | 1012.1 |
| 20260506170629 | 51 | 82 | 4.0 | 8.0 | 0.00 | 0.00 | 0.00 | 100 | 1012.2 |
| 20260506170117 | 52 | 87 | 4.0 | 6.0 | 0.00 | 0.00 | 0.00 | 100 | 1012.3 |
| 20260506165614 | 52 | 94 | 4.0 | 8.0 | 0.00 | 0.00 | 0.00 | 100 | 1012.2 |
| 20260506165112 | 52 | 90 | 4.0 | 8.0 | 0.00 | 0.00 | 0.00 | 100 | 1012.3 |
| 20260506164612 | 52 | 105 | 4.0 | 9.0 | 0.00 | 0.00 | 0.00 | 100 | 1012.4 |
| 20260506164112 | 52 | 74 | 4.0 | 9.0 | 0.00 | 0.00 | 0.00 | 100 | 1012.4 |
| 20260506163612 | 52 | 89 | 5.0 | 10.0 | 0.00 | 0.00 | 0.00 | 100 | 1012.4 |
| 20260506163110 | 52 | 113 | 5.0 | 10.0 | 0.00 | 0.00 | 0.00 | 100 | 1012.4 |
| 20260506162610 | 52 | 80 | 5.0 | 10.0 | 0.00 | 0.00 | 0.00 | 100 | 1012.4 |
| 20260506162352 | 52 | 106 | 5.0 | 9.0 | 0.00 | 0.00 | 0.00 | 100 | 1012.4 |
| 20260506161608 | 52 | 97 | 5.0 | 11.0 | 0.00 | 0.00 | 0.00 | 100 | 1012.5 |
| 20260506161108 | 52 | 92 | 5.0 | 11.0 | 0.00 | 0.00 | 0.00 | 100 | 1012.4 |
| 20260506160656 | 52 | 77 | 6.0 | 10.0 | 0.00 | 0.00 | 0.00 | 100 | 1012.5 |
| 20260506160622 | 52 | 98 | 5.0 | 9.0 | 0.00 | 0.00 | 0.00 | 100 | 1012.4 |
| 20260506155619 | 52 | 99 | 6.0 | 10.0 | 0.00 | 0.00 | 0.00 | 100 | 1012.5 |
| 20260506155115 | 53 | 90 | 5.0 | 10.0 | 0.00 | 0.00 | 0.00 | 100 | 1012.6 |
| 20260506155107 | 53 | 88 | 6.0 | 10.0 | 0.00 | 0.00 | 0.00 | 100 | 1012.6 |
| 20260506154105 | 53 | 57 | 5.0 | 8.0 | 0.00 | 0.00 | 0.00 | 100 | 1012.6 |
| 20260506153837 | 54 | 78 | 6.0 | 9.0 | 0.00 | 0.00 | 0.00 | 100 | 1012.6 |
| 20260506153104 | 54 | 75 | 6.0 | 10.0 | 0.00 | 0.00 | 0.00 | 100 | 1012.8 |
| 20260506152832 | 55 | 72 | 6.0 | 10.0 | 0.00 | 0.00 | 0.00 | 100 | 1012.8 |
| 20260506152059 | 54 | 68 | 6.0 | 10.0 | 0.00 | 0.00 | 0.00 | 100 | 1012.8 |
| 20260506151839 | 54 | 88 | 5.0 | 8.0 | 0.00 | 0.00 | 0.00 | 100 | 1012.9 |
| 20260506151351 | 53 | 87 | 6.0 | 9.0 | 0.00 | 0.00 | 0.00 | 100 | 1012.9 |
| 20260506151343 | 53 | 78 | 5.0 | 9.0 | 0.00 | 0.00 | 0.00 | 100 | 1012.9 |
| 20260506150058 | 53 | 80 | 6.0 | 9.0 | 0.00 | 0.00 | 0.00 | 100 | 1012.9 |
| 20260506145557 | 53 | 80 | 6.0 | 9.0 | 0.00 | 0.00 | 0.00 | 100 | 1012.9 |
| 20260506145056 | 53 | 69 | 6.0 | 9.0 | 0.00 | 0.00 | 0.00 | 100 | 1013.0 |
| 20260506144557 | 53 | 73 | 6.0 | 9.0 | 0.00 | 0.00 | 0.00 | 100 | 1013.1 |
| 20260506144055 | 53 | 65 | 5.0 | 9.0 | 0.00 | 0.00 | 0.00 | 100 | 1013.1 |
| 20260506143824 | 53 | 75 | 5.0 | 9.0 | 0.00 | 0.00 | 0.00 | 100 | 1013.0 |
| 20260506143052 | 53 | 83 | 4.0 | 8.0 | 0.00 | 0.00 | 0.00 | 100 | 1013.0 |
| 20260506142554 | 52 | 74 | 4.0 | 8.0 | 0.00 | 0.00 | 0.00 | 100 | 1013.1 |
| 20260506142058 | 52 | 78 | 5.0 | 8.0 | 0.00 | 0.00 | 0.00 | 100 | 1013.2 |
| 20260506141554 | 52 | 90 | 5.0 | 8.0 | 0.00 | 0.00 | 0.00 | 100 | 1013.3 |
| 20260506141332 | 52 | 65 | 5.0 | 8.0 | 0.00 | 0.00 | 0.00 | 100 | 1013.4 |
| 20260506140552 | 52 | 75 | 5.0 | 8.0 | 0.00 | 0.00 | 0.00 | 100 | 1013.4 |
| 20260506140052 | 52 | 78 | 6.0 | 9.0 | 0.00 | 0.00 | 0.00 | 100 | 1013.3 |
| 20260506135549 | 51 | 78 | 7.0 | 9.0 | 0.00 | 0.00 | 0.00 | 100 | 1013.4 |
| 20260506135326 | 52 | 74 | 6.0 | 9.0 | 0.00 | 0.00 | 0.00 | 100 | 1013.4 |
| 20260506134819 | 52 | 79 | 5.0 | 9.0 | 0.00 | 0.00 | 0.00 | 100 | 1013.4 |
| 20260506134045 | 53 | 80 | 5.0 | 8.0 | 0.00 | 0.00 | 0.00 | 100 | 1013.5 |
| 20260506133547 | 53 | 83 | 4.0 | 8.0 | 0.00 | 0.00 | 0.00 | 100 | 1013.4 |
| 20260506133046 | 53 | 71 | 4.0 | 8.0 | 0.00 | 0.00 | 0.00 | 100 | 1013.5 |
| 20260506132545 | 53 | 87 | 5.0 | 8.0 | 0.00 | 0.00 | 0.00 | 100 | 1013.4 |
| 20260506132045 | 53 | 75 | 5.0 | 9.0 | 0.00 | 0.00 | 0.00 | 100 | 1013.5 |
| 20260506131811 | 53 | 79 | 5.0 | 9.0 | 0.00 | 0.00 | 0.00 | 100 | 1013.5 |
| 20260506131043 | 53 | 72 | 5.0 | 8.0 | 0.00 | 0.00 | 0.00 | 100 | 1013.5 |
| 20260506130542 | 52 | 82 | 6.0 | 10.0 | 0.00 | 0.00 | 0.00 | 100 | 1013.6 |
| 20260506130100 | 52 | 69 | 6.0 | 10.0 | 0.00 | 0.00 | 0.00 | 100 | 1013.5 |
| 20260506125810 | 52 | 73 | 6.0 | 9.0 | 0.00 | 0.00 | 0.00 | 100 | 1013.5 |
| 20260506125037 | 52 | 57 | 5.0 | 9.0 | 0.00 | 0.00 | 0.00 | 100 | 1013.6 |
| 20260506124539 | 52 | 74 | 5.0 | 8.0 | 0.00 | 0.00 | 0.00 | 100 | 1013.7 |
| 20260506124039 | 52 | 74 | 5.0 | 8.0 | 0.00 | 0.00 | 0.00 | 100 | 1013.7 |
| 20260506123806 | 53 | 74 | 5.0 | 8.0 | 0.00 | 0.00 | 0.00 | 100 | 1013.7 |
| 20260506123308 | 54 | 80 | 4.0 | 8.0 | 0.00 | 0.00 | 0.00 | 100 | 1014.0 |
| 20260506122533 | 55 | 80 | 4.0 | 9.0 | 0.00 | 0.00 | 0.00 | 100 | 1014.0 |
| 20260506122035 | 56 | 94 | 4.0 | 9.0 | 0.00 | 0.00 | 0.00 | 100 | 1014.0 |
| 20260506121559 | 56 | 88 | 4.0 | 10.0 | 0.00 | 0.00 | 0.00 | 100 | 1014.0 |
| 20260506121546 | 57 | 76 | 4.0 | 10.0 | 0.00 | 0.00 | 0.00 | 100 | 1013.9 |
| 20260506120758 | 55 | 84 | 4.0 | 8.0 | 0.00 | 0.00 | 0.00 | 100 | 1014.0 |
| 20260506120033 | 55 | 96 | 4.0 | 9.0 | 0.00 | 0.00 | 0.00 | 100 | 1014.0 |
| 20260506115534 | 55 | 99 | 4.0 | 9.0 | 0.00 | 0.00 | 0.00 | 100 | 1014.0 |
| 20260506115044 | 55 | 94 | 4.0 | 9.0 | 0.00 | 0.00 | 0.00 | 100 | 1014.2 |
| 20260506115034 | 55 | 89 | 4.0 | 8.0 | 0.00 | 0.00 | 0.00 | 100 | 1014.1 |
| 20260506114032 | 54 | 81 | 4.0 | 9.0 | 0.00 | 0.00 | 0.00 | 100 | 1014.2 |
| 20260506113535 | 54 | 109 | 5.0 | 12.0 | 0.00 | 0.00 | 0.00 | 100 | 1014.3 |
| 20260506113029 | 54 | 119 | 4.0 | 12.0 | 0.00 | 0.00 | 0.00 | 100 | 1014.3 |
| 20260506112534 | 53 | 78 | 4.0 | 8.0 | 0.00 | 0.00 | 0.00 | 100 | 1014.4 |
| 20260506112039 | 53 | 98 | 4.0 | 8.0 | 0.00 | 0.00 | 0.00 | 100 | 1014.4 |
| 20260506111531 | 52 | 98 | 4.0 | 10.0 | 0.00 | 0.00 | 0.00 | 100 | 1014.4 |
| 20260506111029 | 52 | 117 | 4.0 | 10.0 | 0.00 | 0.00 | 0.00 | 100 | 1014.5 |
| 20260506110540 | 53 | 106 | 3.0 | 9.0 | 0.00 | 0.00 | 0.00 | 100 | 1014.5 |
| 20260506110302 | 52 | 94 | 3.0 | 7.0 | 0.00 | 0.00 | 0.00 | 100 | 1014.5 |
| 20260506105527 | 51 | 78 | 3.0 | 7.0 | 0.00 | 0.00 | 0.00 | 100 | 1014.5 |
| 20260506105028 | 50 | 82 | 3.0 | 6.0 | 0.00 | 0.00 | 0.00 | 100 | 1014.5 |
| 20260506104526 | 50 | 86 | 3.0 | 6.0 | 0.00 | 0.00 | 0.00 | 100 | 1014.5 |
| 20260506104259 | 49 | 95 | 3.0 | 8.0 | 0.00 | 0.00 | 0.00 | 100 | 1014.5 |
| 20260506103523 | 49 | 66 | 4.0 | 8.0 | 0.00 | 0.00 | 0.00 | 100 | 1014.5 |
| 20260506103026 | 49 | 76 | 4.0 | 7.0 | 0.00 | 0.00 | 0.00 | 100 | 1014.5 |
| 20260506102521 | 49 | 72 | 4.0 | 7.0 | 0.00 | 0.00 | 0.00 | 100 | 1014.6 |
| 20260506102019 | 48 | 89 | 3.0 | 7.0 | 0.00 | 0.00 | 0.00 | 100 | 1014.7 |
| 20260506101519 | 48 | 80 | 4.0 | 8.0 | 0.00 | 0.00 | 0.00 | 100 | 1014.7 |
| 20260506101017 | 48 | 122 | 4.0 | 8.0 | 0.00 | 0.00 | 0.00 | 100 | 1014.6 |
| 20260506100517 | 48 | 71 | 4.0 | 7.0 | 0.00 | 0.00 | 0.00 | 100 | 1014.5 |
| 20260506100255 | 48 | 85 | 4.0 | 8.0 | 0.00 | 0.00 | 0.00 | 100 | 1014.6 |
| 20260506095518 | 48 | 92 | 4.0 | 8.0 | 0.00 | 0.00 | 0.00 | 100 | 1014.5 |
| 20260506095019 | 48 | 69 | 4.0 | 8.0 | 0.00 | 0.00 | 0.00 | 100 | 1014.6 |
| 20260506094517 | 48 | 78 | 4.0 | 8.0 | 0.00 | 0.00 | 0.00 | 100 | 1014.6 |
| 20260506094016 | 49 | 71 | 4.0 | 7.0 | 0.00 | 0.00 | 0.00 | 100 | 1014.7 |
| 20260506093517 | 49 | 65 | 4.0 | 7.0 | 0.00 | 0.00 | 0.00 | 100 | 1014.7 |
| 20260506093022 | 49 | 80 | 5.0 | 10.0 | 0.00 | 0.00 | 0.00 | 100 | 1014.8 |
| 20260506092523 | 49 | 75 | 4.0 | 10.0 | 0.00 | 0.00 | 0.00 | 100 | 1014.8 |
| 20260506092022 | 49 | 80 | 4.0 | 7.0 | 0.00 | 0.00 | 0.00 | 100 | 1014.8 |
| 20260506091520 | 49 | 80 | 4.0 | 7.0 | 0.00 | 0.00 | 0.00 | 100 | 1014.9 |
| 20260506091015 | 50 | 71 | 4.0 | 8.0 | 0.00 | 0.00 | 0.00 | 100 | 1014.9 |
| 20260506090516 | 50 | 59 | 4.0 | 8.0 | 0.00 | 0.00 | 0.00 | 100 | 1015.0 |
| 20260506090248 | 50 | 94 | 3.0 | 7.0 | 0.00 | 0.00 | 0.00 | 100 | 1015.1 |
| 20260506085516 | 50 | 67 | 3.0 | 7.0 | 0.00 | 0.00 | 0.00 | 100 | 1015.2 |
| 20260506085248 | 49 | 104 | 3.0 | 7.0 | 0.00 | 0.00 | 0.00 | 100 | 1015.3 |
| 20260506084516 | 49 | 83 | 3.0 | 6.0 | 0.00 | 0.00 | 0.00 | 100 | 1015.4 |
| 20260506084025 | 48 | 76 | 3.0 | 6.0 | 0.00 | 0.00 | 0.00 | 100 | 1015.4 |
| 20260506084021 | 48 | 83 | 3.0 | 6.0 | 0.00 | 0.00 | 0.00 | 100 | 1015.5 |
| 20260506083002 | 48 | 65 | 3.0 | 6.0 | 0.00 | 0.00 | 0.00 | 100 | 1015.6 |
| 20260506082535 | 48 | 55 | 2.0 | 5.0 | 0.00 | 0.00 | 0.00 | 100 | 1015.6 |
| 20260506082516 | 48 | 66 | 3.0 | 5.0 | 0.00 | 0.00 | 0.00 | 100 | 1015.5 |
| 20260506081501 | 48 | 52 | 2.0 | 5.0 | 0.00 | 0.00 | 0.00 | 100 | 1015.7 |
| 20260506081001 | 47 | 52 | 3.0 | 5.0 | 0.00 | 0.00 | 0.00 | 100 | 1015.8 |
| 20260506080502 | 47 | 39 | 2.0 | 5.0 | 0.00 | 0.00 | 0.00 | 100 | 1015.6 |
| 20260506073452 | 44 | 258 | 1.0 | 3.0 | 0.00 | 0.00 | 0.00 | 100 | 1015.7 |
| 20260506073238 | 43 | 257 | 1.0 | 3.0 | 0.00 | 0.00 | 0.00 | 100 | 1015.7 |
| 20260506072453 | 42 | 257 | 2.0 | 4.0 | 0.00 | 0.00 | 0.00 | 100 | 1015.7 |
| 20260506071952 | 42 | 258 | 2.0 | 4.0 | 0.00 | 0.00 | 0.00 | 100 | 1015.8 |
| 20260506071450 | 41 | 258 | 1.0 | 3.0 | 0.00 | 0.00 | 0.00 | 100 | 1015.8 |
| 20260506071225 | 41 | 258 | 1.0 | 3.0 | 0.00 | 0.00 | 0.00 | 100 | 1015.9 |
| 20260506070449 | 40 | 258 | 0.0 | 2.0 | 0.00 | 0.00 | 0.00 | 100 | 1015.9 |
| 20260506062442 | 35 | 257 | 1.0 | 3.0 | 0.00 | 0.00 | 0.00 | 100 | 1016.1 |
| 20260506061945 | 35 | 209 | 0.0 | 3.0 | 0.00 | 0.00 | 0.00 | 100 | 1016.0 |
| 20260506061438 | 34 | 209 | 0.0 | 0.0 | 0.00 | 0.00 | 0.00 | 100 | 1016.0 |
| 20260506060936 | 34 | 209 | 0.0 | 1.0 | 0.00 | 0.00 | 0.00 | 100 | 1016.1 |
| 20260506060436 | 34 | 209 | 1.0 | 2.0 | 0.00 | 0.00 | 0.00 | 100 | 1016.1 |
| 20260506050928 | 31 | 209 | 1.0 | 3.0 | 0.00 | 0.00 | 0.00 | 100 | 1016.2 |
| 20260506050427 | 31 | 209 | 0.0 | 0.0 | 0.00 | 0.00 | 0.00 | 100 | 1016.3 |
| 20260506044413 | 31 | 207 | 0.0 | 0.0 | 0.00 | 0.00 | 0.00 | 100 | 1016.3 |
| 20260506043912 | 31 | 207 | 0.0 | 0.0 | 0.00 | 0.00 | 0.00 | 100 | 1016.4 |
| 20260506043412 | 31 | 207 | 1.0 | 3.0 | 0.00 | 0.00 | 0.00 | 100 | 1016.4 |
| 20260506042913 | 31 | 207 | 1.0 | 3.0 | 0.00 | 0.00 | 0.00 | 100 | 1016.3 |
| 20260506042412 | 31 | 207 | 1.0 | 3.0 | 0.00 | 0.00 | 0.00 | 100 | 1016.3 |
| 20260506042203 | 31 | 207 | 0.0 | 2.0 | 0.00 | 0.00 | 0.00 | 100 | 1016.4 |
| 20260506041649 | 31 | 207 | 0.0 | 3.0 | 0.00 | 0.00 | 0.00 | 100 | 1016.5 |
| 20260506041203 | 31 | 207 | 0.0 | 3.0 | 0.00 | 0.00 | 0.00 | 100 | 1016.5 |
| 20260506040412 | 31 | 207 | 0.0 | 2.0 | 0.00 | 0.00 | 0.00 | 100 | 1016.5 |
| 20260506035914 | 32 | 207 | 1.0 | 3.0 | 0.00 | 0.00 | 0.00 | 100 | 1016.5 |
| 20260506035413 | 32 | 207 | 2.0 | 3.0 | 0.00 | 0.00 | 0.00 | 100 | 1016.5 |
| 20260506034914 | 32 | 207 | 2.0 | 3.0 | 0.00 | 0.00 | 0.00 | 100 | 1016.5 |
| 20260506034413 | 32 | 207 | 2.0 | 4.0 | 0.00 | 0.00 | 0.00 | 100 | 1016.5 |
| 20260506034201 | 31 | 207 | 2.0 | 4.0 | 0.00 | 0.00 | 0.00 | 100 | 1016.6 |
| 20260506033412 | 31 | 207 | 2.0 | 4.0 | 0.00 | 0.00 | 0.00 | 100 | 1016.7 |
| 20260506032914 | 32 | 207 | 2.0 | 4.0 | 0.00 | 0.00 | 0.00 | 100 | 1016.7 |
| 20260506032717 | 32 | 207 | 2.0 | 3.0 | 0.00 | 0.00 | 0.00 | 100 | 1016.8 |
| 20260506032431 | 32 | 207 | 3.0 | 4.0 | 0.00 | 0.00 | 0.00 | 100 | 1016.7 |
| 20260506031408 | 32 | 207 | 2.0 | 3.0 | 0.00 | 0.00 | 0.00 | 100 | 1016.7 |
| 20260506030909 | 32 | 207 | 2.0 | 3.0 | 0.00 | 0.00 | 0.00 | 100 | 1016.8 |
| 20260506030410 | 32 | 207 | 2.0 | 3.0 | 0.00 | 0.00 | 0.00 | 100 | 1016.8 |
| 20260506025909 | 32 | 207 | 2.0 | 3.0 | 0.00 | 0.00 | 0.00 | 100 | 1016.8 |
| 20260506025410 | 31 | 207 | 1.0 | 3.0 | 0.00 | 0.00 | 0.00 | 100 | 1016.9 |
| 20260506025212 | 31 | 207 | 1.0 | 2.0 | 0.00 | 0.00 | 0.00 | 100 | 1016.8 |
| 20260506024405 | 32 | 207 | 2.0 | 3.0 | 0.00 | 0.00 | 0.00 | 100 | 1016.8 |
| 20260506024150 | 31 | 207 | 2.0 | 3.0 | 0.00 | 0.00 | 0.00 | 100 | 1016.8 |
| 20260506023648 | 31 | 207 | 1.0 | 3.0 | 0.00 | 0.00 | 0.00 | 100 | 1016.8 |
| 20260506022907 | 31 | 207 | 0.0 | 2.0 | 0.00 | 0.00 | 0.00 | 100 | 1016.8 |
| 20260506022404 | 31 | 207 | 1.0 | 4.0 | 0.00 | 0.00 | 0.00 | 100 | 1016.8 |
| 20260506021902 | 32 | 207 | 2.0 | 4.0 | 0.00 | 0.00 | 0.00 | 100 | 1016.8 |
| 20260506021403 | 32 | 207 | 2.0 | 3.0 | 0.00 | 0.00 | 0.00 | 100 | 1016.9 |
| 20260506021137 | 32 | 207 | 2.0 | 3.0 | 0.00 | 0.00 | 0.00 | 100 | 1016.9 |
| 20260506020402 | 32 | 207 | 2.0 | 3.0 | 0.00 | 0.00 | 0.00 | 100 | 1016.9 |
| 20260506015905 | 32 | 207 | 2.0 | 3.0 | 0.00 | 0.00 | 0.00 | 100 | 1017.0 |
| 20260506015405 | 32 | 207 | 1.0 | 3.0 | 0.00 | 0.00 | 0.00 | 100 | 1017.0 |
| 20260506014903 | 33 | 207 | 1.0 | 4.0 | 0.00 | 0.00 | 0.00 | 100 | 1017.0 |
| 20260506014403 | 33 | 207 | 3.0 | 6.0 | 0.00 | 0.00 | 0.00 | 100 | 1017.0 |
| 20260506013906 | 33 | 207 | 3.0 | 6.0 | 0.00 | 0.00 | 0.00 | 100 | 1017.1 |
| 20260506013404 | 32 | 260 | 2.0 | 4.0 | 0.00 | 0.00 | 0.00 | 100 | 1017.1 |
| 20260506012907 | 33 | 261 | 3.0 | 4.0 | 0.00 | 0.00 | 0.00 | 100 | 1017.2 |
| 20260506012402 | 33 | 261 | 2.0 | 6.0 | 0.00 | 0.00 | 0.00 | 100 | 1017.2 |
| 20260506011904 | 33 | 261 | 1.0 | 6.0 | 0.00 | 0.00 | 0.00 | 100 | 1017.2 |
| 20260506011402 | 33 | 261 | 2.0 | 6.0 | 0.00 | 0.00 | 0.00 | 100 | 1017.3 |
| 20260506011217 | 32 | 234 | 2.0 | 3.0 | 0.00 | 0.00 | 0.00 | 100 | 1017.2 |
| 20260506010921 | 32 | 261 | 3.0 | 6.0 | 0.00 | 0.00 | 0.00 | 100 | 1017.2 |
| 20260506010152 | 32 | 234 | 3.0 | 4.0 | 0.00 | 0.00 | 0.00 | 100 | 1017.1 |
| 20260506005357 | 32 | 233 | 3.0 | 4.0 | 0.00 | 0.00 | 0.00 | 100 | 1017.2 |
| 20260506004857 | 32 | 233 | 3.0 | 7.0 | 0.00 | 0.00 | 0.00 | 100 | 1017.2 |
| 20260506004356 | 32 | 234 | 3.0 | 7.0 | 0.00 | 0.00 | 0.00 | 100 | 1017.3 |
| 20260506003857 | 32 | 234 | 3.0 | 7.0 | 0.00 | 0.00 | 0.00 | 100 | 1017.3 |
| 20260506003357 | 32 | 234 | 3.0 | 7.0 | 0.00 | 0.00 | 0.00 | 100 | 1017.4 |
| 20260506002856 | 32 | 227 | 3.0 | 7.0 | 0.00 | 0.00 | 0.00 | 100 | 1017.4 |
| 20260506002353 | 32 | 228 | 3.0 | 7.0 | 0.00 | 0.00 | 0.00 | 100 | 1017.4 |
| 20260506001853 | 32 | 234 | 3.0 | 7.0 | 0.00 | 0.00 | 0.00 | 100 | 1017.4 |
| 20260506001633 | 32 | 233 | 2.0 | 5.0 | 0.00 | 0.00 | 0.00 | 100 | 1017.4 |
| 20260506000852 | 32 | 234 | 3.0 | 5.0 | 0.00 | 0.00 | 0.00 | 100 | 1017.4 |
| 20260506000629 | 32 | 234 | 3.0 | 5.0 | 0.00 | 0.00 | 0.00 | 100 | 1017.5 |
| 20260505235850 | 32 | 234 | 3.0 | 4.0 | 0.00 | 0.00 | 0.00 | 100 | 1017.4 |
| 20260505235350 | 33 | 234 | 2.0 | 4.0 | 0.00 | 0.00 | 0.00 | 100 | 1017.5 |
| 20260505234851 | 33 | 233 | 2.0 | 3.0 | 0.00 | 0.00 | 0.00 | 100 | 1017.3 |
| 20260505234629 | 33 | 233 | 3.0 | 4.0 | 0.00 | 0.00 | 0.00 | 100 | 1017.4 |
| 20260505233851 | 34 | 233 | 3.0 | 4.0 | 0.00 | 0.00 | 0.00 | 100 | 1017.4 |
| 20260505233345 | 34 | 214 | 2.0 | 4.0 | 0.00 | 0.00 | 0.00 | 100 | 1017.4 |
| 20260505232837 | 35 | 214 | 2.0 | 4.0 | 0.00 | 0.00 | 0.00 | 100 | 1017.4 |
| 20260505232335 | 35 | 214 | 3.0 | 5.0 | 0.00 | 0.00 | 0.00 | 100 | 1017.5 |
| 20260505231837 | 35 | 214 | 2.0 | 5.0 | 0.00 | 0.00 | 0.00 | 100 | 1017.4 |
| 20260505231334 | 35 | 214 | 2.0 | 4.0 | 0.00 | 0.00 | 0.00 | 100 | 1017.5 |
| 20260505230833 | 36 | 214 | 2.0 | 4.0 | 0.00 | 0.00 | 0.00 | 100 | 1017.4 |
| 20260505230416 | 36 | 214 | 3.0 | 5.0 | 0.00 | 0.00 | 0.00 | 100 | 1017.5 |
| 20260505230359 | 36 | 214 | 3.0 | 4.0 | 0.00 | 0.00 | 0.00 | 100 | 1017.5 |
| 20260505225336 | 36 | 214 | 3.0 | 5.0 | 0.00 | 0.00 | 0.00 | 100 | 1017.6 |
| 20260505224840 | 37 | 214 | 3.0 | 4.0 | 0.00 | 0.00 | 0.00 | 100 | 1017.6 |
| 20260505224342 | 38 | 214 | 3.0 | 4.0 | 0.00 | 0.00 | 0.00 | 100 | 1017.7 |
| 20260505223806 | 38 | 214 | 3.0 | 5.0 | 0.00 | 0.00 | 0.00 | 100 | 1017.7 |
| 20260505223305 | 40 | 207 | 2.0 | 5.0 | 0.00 | 0.00 | 0.00 | 100 | 1017.7 |
| 20260505222806 | 40 | 169 | 2.0 | 5.0 | 0.00 | 0.00 | 0.00 | 100 | 1017.6 |
| 20260505222309 | 40 | 203 | 1.0 | 3.0 | 0.00 | 0.00 | 0.00 | 100 | 1017.6 |
| 20260505221808 | 40 | 203 | 1.0 | 2.0 | 0.00 | 0.00 | 0.00 | 100 | 1017.7 |
| 20260505221313 | 41 | 204 | 1.0 | 2.0 | 0.00 | 0.00 | 0.00 | 100 | 1017.7 |
| 20260505221056 | 41 | 204 | 1.0 | 3.0 | 0.00 | 0.00 | 0.00 | 100 | 1017.7 |
| 20260505220305 | 41 | 204 | 1.0 | 3.0 | 0.00 | 0.00 | 0.00 | 100 | 1017.7 |
| 20260505215809 | 41 | 203 | 1.0 | 3.0 | 0.00 | 0.00 | 0.00 | 100 | 1017.8 |
| 20260505215305 | 41 | 204 | 1.0 | 2.0 | 0.00 | 0.00 | 0.00 | 100 | 1017.8 |
| 20260505215019 | 41 | 203 | 1.0 | 3.0 | 0.00 | 0.00 | 0.00 | 100 | 1017.8 |
| 20260505214254 | 41 | 203 | 2.0 | 4.0 | 0.00 | 0.00 | 0.00 | 100 | 1017.7 |
| 20260505213753 | 42 | 204 | 2.0 | 4.0 | 0.00 | 0.00 | 0.00 | 100 | 1017.6 |
| 20260505213252 | 42 | 204 | 2.0 | 3.0 | 0.00 | 0.00 | 0.00 | 100 | 1017.6 |
| 20260505212750 | 42 | 204 | 1.0 | 2.0 | 0.00 | 0.00 | 0.00 | 100 | 1017.6 |
| 20260505212248 | 42 | 204 | 1.0 | 3.0 | 0.00 | 0.00 | 0.00 | 100 | 1017.5 |
| 20260505211748 | 42 | 204 | 1.0 | 4.0 | 0.00 | 0.00 | 0.00 | 100 | 1017.5 |
| 20260505211249 | 42 | 203 | 1.0 | 4.0 | 0.00 | 0.00 | 0.00 | 100 | 1017.5 |
| 20260505210749 | 43 | 194 | 0.0 | 1.0 | 0.00 | 0.00 | 0.00 | 100 | 1017.5 |
| 20260505210248 | 43 | 194 | 0.0 | 1.0 | 0.00 | 0.00 | 0.00 | 100 | 1017.6 |
| 20260505205747 | 43 | 194 | 1.0 | 2.0 | 0.00 | 0.00 | 0.00 | 100 | 1017.6 |
| 20260505205249 | 43 | 194 | 2.0 | 4.0 | 0.00 | 0.00 | 0.00 | 100 | 1017.6 |